Weather History for Caslav, Czech Republic

Change the Weather History Date:

Friday, October 11, 2013

  Actual Average Record
Temperature  
Mean Temperature 56 °F -  
Max Temperature 64 °F - - ()
Min Temperature 48 °F - - ()
Degree Days  
Heating Degree Days 9    
Growing Degree Days 6 (Base 50)    
Moisture  
Dew Point 51 °F    
Average Humidity 95    
Maximum Humidity 100    
Minimum Humidity 73    
Precipitation  
Precipitation 0.00 in - - ()
Sea Level Pressure  
Sea Level Pressure 29.91 in    
Wind  
Wind Speed 7 mph ()    
Max Wind Speed 21 mph    
Max Gust Speed 24 mph    
Visibility 5.8 miles    
Events Rain    
T = Trace of Precipitation, MM = Missing Value Source: Averaged Metar Reports

Daily Weather History Graph

Daily Weather History Graph

Search for Another Location

Airport:

Trip Planner

Search our weather history database for the weather conditions in past years. The results will help you decide how hot, cold, wet, or windy it might be!

Date:

Astronomy

Oct. 11, 2013 Rise Set
Actual Time 7:13 AM CEST 6:15 PM CEST
Civil Twilight 6:41 AM CEST 6:47 PM CEST
Nautical Twilight 6:04 AM CEST 7:25 PM CEST
Astronomical Twilight 5:26 AM CEST 8:02 PM CEST
Moon 2:01 PM CEST (10/11) 11:22 PM CEST (10/11)
Length of Visible Light 12h 06m
Length of Day
11h 01m
Waxing Crescent, 44% of the Moon is Illuminated
Oct 11
Waxing Crescent
Oct 12
First Quarter
Oct 19
Full
Oct 27
Last Quarter
Nov 3
New

Hourly Weather History & Observations

Time (CEST) Temp. Dew Point Humidity Pressure Visibility Wind Dir Wind Speed Gust Speed Precip Events Conditions
12:00 AM 48.2 °F 48.2 °F 100% 29.80 in 6.2 mi West 13.8 mph - N/A Rain Light Rain
12:09 AM 48.2 °F 48.2 °F 100% 29.80 in 6.2 mi West 12.7 mph - N/A   Overcast
1:00 AM 48.2 °F 48.2 °F 100% 29.83 in 6.2 mi West 8.1 mph - N/A Rain Light Rain
2:00 AM 48.2 °F 46.4 °F 93% 29.83 in 6.2 mi West 4.6 mph - N/A   Overcast
2:29 AM 48.2 °F 46.4 °F 93% 29.86 in 6.2 mi West 4.6 mph - N/A   Overcast
3:00 AM 48.2 °F 46.4 °F 93% 29.86 in 6.2 mi WSW 2.3 mph - N/A   Overcast
4:00 AM 48.2 °F 46.4 °F 93% 29.86 in 6.2 mi Variable 1.2 mph - N/A   Overcast
5:00 AM 48.2 °F 48.2 °F 100% 29.86 in 6.2 mi ENE 3.5 mph - N/A   Overcast
6:00 AM 48.2 °F 48.2 °F 100% 29.86 in 6.2 mi NNE 3.5 mph - N/A   Overcast
7:00 AM 48.2 °F 48.2 °F 100% 29.86 in 6.2 mi Variable 2.3 mph - N/A   Overcast
8:00 AM 48.2 °F 48.2 °F 100% 29.89 in 5.0 mi Variable 2.3 mph - N/A   Overcast
8:44 AM 50.0 °F 50.0 °F 100% 29.89 in 5.0 mi Variable 2.3 mph - N/A   Overcast
9:00 AM 50.0 °F 50.0 °F 100% 29.89 in 6.2 mi Calm Calm - N/A   Overcast
9:36 AM 55.4 °F 53.6 °F 94% 29.89 in 5.0 mi ESE 11.5 mph 21.9 mph N/A   Overcast
10:00 AM 55.4 °F 53.6 °F 94% 29.89 in 5.0 mi ENE 8.1 mph - N/A   Overcast
11:00 AM 57.2 °F 55.4 °F 94% 29.89 in 5.0 mi East 9.2 mph - N/A   Overcast
12:00 PM 59.0 °F 55.4 °F 88% 29.92 in 6.2 mi ESE 8.1 mph - N/A Rain Light Rain
1:00 PM 60.8 °F 57.2 °F 88% 29.92 in 6.2 mi ESE 13.8 mph 24.2 mph N/A   Overcast
2:00 PM 64.4 °F 55.4 °F 73% 29.89 in 6.2 mi SE 20.7 mph - N/A   Mostly Cloudy
3:00 PM 64.4 °F 55.4 °F 73% 29.92 in 6.2 mi SE 16.1 mph - N/A   Mostly Cloudy
4:00 PM 60.8 °F 57.2 °F 88% 29.92 in 5.0 mi SE 13.8 mph - N/A   Overcast
5:00 PM 59.0 °F 57.2 °F 94% 29.95 in 5.0 mi South 8.1 mph - N/A Rain Light Rain
6:00 PM 50.0 °F 50.0 °F 100% 29.98 in 5.0 mi SW 9.2 mph - N/A Rain Light Rain
7:00 PM 50.0 °F 50.0 °F 100% 29.98 in 6.2 mi East 6.9 mph - N/A Rain Light Rain
8:00 PM 50.0 °F 50.0 °F 100% 30.01 in 6.2 mi WNW 9.2 mph - N/A Rain Light Rain
9:00 PM 50.0 °F 50.0 °F 100% 30.06 in 6.2 mi WNW 5.8 mph - N/A   Overcast
10:00 PM 50.0 °F 48.2 °F 94% 30.06 in 6.2 mi Variable 2.3 mph - N/A   Overcast
11:00 PM 48.2 °F 48.2 °F 100% 30.09 in - Variable 1.2 mph - N/A   Clear